Regional Weather Roundup
Issued by NWS Wakefield, VA

Home | Current Version | Previous Version | Graphics & Text | Print | Product List | Glossary On
Versions: 1 2 3 4 5 6 7 8 9 10 11 12 13 14 15 16 17 18 19 20 21 22 23 24 25 26 27
000
ASUS41 KAKQ 251115
RWRAKQ

REGIONAL WEATHER ROUNDUP
NATIONAL WEATHER SERVICE WAKEFIELD VA
700 AM EDT SUN SEP 25 2016

Note: "fair" indicates few or no clouds below 12,000 feet with no
significant weather and/or obstructions to visibility. * = Denotes
station may not report precipitation (e.g., rain,snow,etc.),
thunder or fog.

VAZ042-051-052>054-056-251200-
NORTHERN VIRGINIA

CITY           SKY/WX    TMP DP  RH WIND       PRES   REMARKS
WASH NATIONAL  PTCLDY    59  49  69 NE8       30.22R
DULLES         PTCLDY    54  48  80 N6        30.22R
FORT BELVOIR   CLOUDY    59  49  69 VRB2      30.20S
QUANTICO         N/A     64  55  72 NE8       30.21R
FREDERICKSBRG* CLOUDY    65  65 100 N8        30.18R
STAFFORD*      MOCLDY    60  60  98 N5        30.23R
WARRENTON      CLOUDY    60  52  74 N7        30.20R
CULPEPER*      CLOUDY    62  55  79 NE7       30.21R
MANASSAS*      CLOUDY    59  55  88 N6        30.21R
LEESBURG*      PTCLDY    54  50  87 N6        30.23R
WINCHESTER     CLOUDY    54  45  71 CALM      30.22R
FRONT ROYAL*   CLOUDY    54  48  82 CALM      30.21R
LURAY*         CLOUDY    59  54  82 NE6       30.20R
$$

VAZ048-049-060>072-079>083-251200-
CENTRAL AND SOUTH CENTRAL VIRGINIA

CITY           SKY/WX    TMP DP  RH WIND       PRES   REMARKS
RICHMOND       MOCLDY    63  61  93 N7        30.17R
CHESTERFIELD*  CLOUDY    66  50  55 N5        30.18R
PETERSBURG*    CLOUDY    67  63  85 NE3       30.17R
HANOVER        CLOUDY    62  60  93 CALM      30.19R
TAPPAHANNOCK*  MOCLDY    62  62 100 NE3       30.17S
QUINTON*       CLOUDY    63  62  97 CALM      30.16R
CHARLOTTSVILLE CLOUDY    66  61  84 N3        30.18R
GORDONSVILLE*  CLOUDY    64  64 100 CALM      30.17S
ORANGE*          N/A     64  64 100 CALM      30.21R
LOUISA*        CLOUDY    68  66  94 CALM      30.17R
BUMPASS*       CLOUDY    64  62  95 CALM      30.18R
FARMVILLE*     CLOUDY    67  65  94 NE3       30.16S
CREWE*         CLOUDY    65  65  99 CALM      30.17R
FORT PICKETT*  CLOUDY    65  64  97 N5        30.16S
CHASE CITY*    CLOUDY    67  66  94 CALM      30.16R
CLARKSVILLE*   CLOUDY    68  68 100 NE3       30.15R
SOUTH HILL*    CLOUDY    66  65  95 NE3       30.21S
LAWRENCEVILLE* CLOUDY    66  64  91 NE5       30.16R
EMPORIA*       CLOUDY    64  63  94 CALM      30.17R
$$

VAZ088>098-251200-
SOUTHEAST VIRGINIA

CITY           SKY/WX    TMP DP  RH WIND       PRES   REMARKS
NORFOLK        CLOUDY    69  59  70 NE9       30.14R
VIRGINIA BEACH MOCLDY    68  56  65 NE10      30.13R
NORFOLK NAVAL  NOT AVBL
WEST POINT*    CLOUDY    65  61  87 CALM      30.18R
SALUDA*        FAIR      65  60  84 N5        30.16R
NEWPORT NEWS   CLOUDY    67  60  78 NE5       30.15R
LANGLEY AFB    CLOUDY    68  58  68 NE13      30.14R
FORT EUSTIS    MOCLDY    68  61  78 VRB3      30.13R
WILLIAMSBURG*  CLEAR     66  66 100 N3        30.17R
HR EXEC AP*    PTSUNNY   68  64  88 CALM      30.16R
FRANKLIN*      CLOUDY    67  65  91 CALM      30.15R
US460-WAKEFLD  CLOUDY    66  63  90 CALM      30.15R
$$

VAZ020-022-025-037-045-251200-
WEST CENTRAL AND SOUTHWEST VIRGINIA

CITY           SKY/WX    TMP DP  RH WIND       PRES   REMARKS
STAUNTON*      RAIN      62  61  97 E5        30.21R
WAYNESBORO*    CLOUDY    60  59  95 E8        30.19S
HOT SPRINGS VA CLOUDY    61  61 100 CALM      30.23S FOG
LYNCHBURG      CLOUDY    67  64  90 E5        30.19R
DANVILLE       CLOUDY    69  65  86 E7        30.15R
SOUTH BOSTON*  CLOUDY    68  67  95 CALM      30.16R
MARTINSVILLE   CLOUDY    67  62  84 CALM      30.19R
ROANOKE        CLOUDY    68  63  84 SE5       30.20R
BLACKSBURG     CLOUDY    67  65  96 SE6       30.23R FOG
DUBLIN*        CLOUDY    67  65  95 CALM      30.21R
MARION*        CLOUDY    60  59  96 CALM      30.24R FOG
HILLSVILLE*    FOG       60  60 100 CALM      30.21S VSB 1/4
RICHLANDS*     FAIR      62  62  99 NE5       30.20R
WISE*          CLEAR     66  61  82 CALM      30.21R
ABINGDON*      CLEAR     63  61  93 E5        30.17R
$$

MDZ021>025-VAZ099-100-251200-
SOUTHERN MARYLAND AND THE DELMARVA PENINSULA

CITY           SKY/WX    TMP DP  RH WIND       PRES   REMARKS
PATUXENT RIVER CLEAR     60  52  74 NE12      30.18R
BAY BRIDGE APT CLEAR     59  46  63 MISG      30.20R
LEONARDTOWN    CLEAR     55  55 100 CALM      30.20R
DOVER          CLEAR     52  52 100 N7        30.19R FOG
GEORGETOWN     CLEAR     55  51  86 CALM      30.18R
EASTON         CLEAR     54  48  82 NE6       30.23R
CAMBRIDGE      CLEAR     55  50  82 CALM      30.18S
SALISBURY      CLEAR     55  54  96 N6        30.18R
OCEAN CITY     CLEAR     58  55  90 NW7       30.16R
WALLOPS ISLAND CLEAR     59  57  93 N7        30.17R
ACCOMACK*      CLEAR     59  55  85 N5        30.16R
$$

NCZ012>017-030>032-251200-
NORTH CENTRAL AND EASTERN NORTH CAROLINA

CITY           SKY/WX    TMP DP  RH WIND       PRES   REMARKS
ROANOKE RAPIDS CLOUDY    68  66  94 NE6       30.14R
RALEIGH        CLOUDY    72  68  87 E6        30.14R
ELIZABETH CITY CLOUDY    69  64  84 NE9       30.14R
AHOSKIE*       NOT AVBL
EDENTON*       CLOUDY    70  70 100 CALM      30.14R
CURRITUCK*     CLOUDY    70  61  74 NE8       30.14R
KILL DEVIL HLS NOT AVBL
MANTEO         DRIZZLE   69  64  85 NE13      30.13R
CAPE HATTERAS  CLOUDY    74  68  81 NE8       30.10R
TARBORO*       CLOUDY    70  67  91 NE3       30.15R
GOLDSBORO      CLOUDY    72  72 100 NE9       30.11R
WASHINGTON     CLOUDY    69  67  91 NE3       30.12R
GREENVILLE     CLOUDY    72  68  88 NE5       30.14R
NEW BERN       CLOUDY    72  67  84 NE9       30.12R
WILMINGTON     CLEAR     70  69  97 N5        30.09R
$$

VAZ048-251200-
ELSEWHERE

CITY           SKY/WX    TMP DP  RH WIND       PRES   REMARKS
HARRISBURG PA  CLEAR     51  45  79 N3        30.22S
BALTIMORE      PTCLDY    54  45  71 N5        30.21R
ANNAPOLIS      CLEAR     61  54  77 N7        30.20R
ANDREWS AFB    CLEAR     53  48  83 N6        30.20R
PHILADELPHIA   PTCLDY    53  42  66 N8        30.21R
HENDERSON NC   PTCLDY    65  64  96 NE3       30.15R FOG
GREENSBORO     CLOUDY    70  69  97 NE9       30.14R FOG
ROCKY MOUNT    CLOUDY    70  68  93 NE6       30.14R
$$

VAZ100-251200-
MARINE

STATION/POSITION TIME  TEMP    WIND        PRES    WAVE   SWELL
                       AIR SEA DIR/SP/G            HT/PER HT/PER
                 (UTC) (F)     (DEG/KT/KT) (MB)    (FT/S) (FT/S)
BRANDYWINE LGT   1000   61      40/ 21/ 23   N/A
CAPE MAY NJ      1000   56 73   30/  4/ 10 1020.9R
LEWES DE         1000   64 72   40/ 16/ 19 1021.0R
OCEAN-CITY-INLET 1000   61 73  340/  7/  9 1021.3R
WACHAPREAGUE VA  1000   63 75  350/  4/  5 1020.8R
THOMAS POINT MD  1100   63 75   40/ 18/ 20 1023.8R
GOOSES REEF MD   1000   66 75   70/ 14/ 17 1022.1R   2/ 3
COVE POINT MD    1000   63      60/ 17/ 19 1022.1R
SOLOMONS ISLAND  1000   64 77  340/  3/  4   N/A
BISHOPS HEAD MD  1000   62 72  340/  4/  6 1021.5R
PINEY POINT MD   1000           40/  7/  8   N/A
POTOMAC MD       1000   67 75   10/  8/ 10 1020.3R   1
CAMBRIDGE MD     1000   60 76   20/  7/ 10 1021.1R
LEWISETTA VA     1000   67 74   40/  6/ 12 1020.7R
RAPPAHANNOCK LGT 1000           40/ 10/ 12 1021.3R
STINGRAY PT      1000   70 76  360/ 10/ 12 1021.0R   1/ 3
YORK RVR RNG VA  1000   70      60/ 13/ 16 1019.9R
YORKTOWN VA      1000   70 77   40/ 10/ 11 1020.1R
JAMESTOWN VA     1000   68 78   30/  4/  6   N/A     0
DOMINION TERM VA 1000   70      40/  3/  5 1020.4R
KIPTOPEKE VA     1000      77   30/  5/  7   N/A
CHES BAY BRIDGE  1000   70 77   30/ 14/ 17 1019.9R
CAPE HENRY VA    1000   70      30/ 14/ 17   N/A
WILLOUBY STN VA  1000   70      40/ 11/ 12   N/A
CAPE HENRY BUOY  1012      76                N/A     5/11   2/11
1ST LANDING BUOY 1000   71 76   60/ 12/ 16 1020.0R   3/ 4
CAPE CHARLES BUO 1026      76                N/A     4/10   2/11
OFFSHORE WE BUOY 1021      75                N/A     5/11   2/11
64NM E OF VA BCH 1050   71 74   30/ 16/ 19 1019.3R   6/11   3/11
DUCK PIER NC     1000   71 78   30/ 17/ 19 1019.0R
44056 DUCK FRF   1011      76                N/A     5/11   2/11
OREGON INLET NC  1000   72 78   20/ 12/ 16 1018.9R
HATTERAS NC      1000   75 81   30/  8/ 10 1018.1R
DIAMOND SHLS NC  1050   76 85   30/ 14/ 17 1018.0R   6/11   5/11
CAPE LOOKOUT NC  1100   77      50/ 11/ 13 1018.5R
$$




USA.gov is the U.S. government's official web portal to all federal, state and local government web resources and services.